Location: Aytr�
(46.1357°N, 1.1145°W)
Time: 19:51:24
(UTC+00:00)

SL-4 R/B - Pass Details

Date: 03 March 2021
Orbit: 428 x 663 km, 51.6° (Epoch: 20 April)

Event Time Altitude Azimuth Distance (km) Brightness Sun altitude
Rises 19:48:45 0° 296° (WNW) 2,468 6.8 -20.6°
Reaches altitude 10° 19:50:58 10° 301° (WNW) 1,568 5.4 -21.0°
Enters shadow 19:54:01 51° 351° (N) 552 2.1 -21.5°
